This is the latest recevied weather packets stored in our database for station/object EB1HRW. If no packets are shown the sender has not sent any weather packets the latest 10 day(s).
| Time | Temp. | Humidity | Pressure | Rain* | Wind** | Luminosity | Snow |
|---|---|---|---|---|---|---|---|
| 1788159645 | 56° F | 85% | 764.3 mmHg | 0 in | - | - | - |
| 1788158745 | 55° F | 85% | 764.2 mmHg | 0 in | - | - | - |
| 1788157844 | 54° F | 85% | 764.2 mmHg | 0 in | - | - | - |
| 1788152446 | 55° F | 84% | 763.9 mmHg | 0 in | - | - | - |
| 1788151547 | 55° F | 85% | 763.8 mmHg | 0 in | - | - | - |
| 1788150646 | 56° F | 85% | 763.7 mmHg | 0 in | - | - | - |
| 1788149748 | 56° F | 85% | 763.8 mmHg | 0 in | - | - | - |
| 1788148849 | 56° F | 85% | 763.8 mmHg | 0 in | - | - | - |
| 1788147944 | 56° F | 85% | 763.7 mmHg | 0 in | - | - | - |
| 1788147045 | 56° F | 85% | 763.6 mmHg | 0 in | - | - | - |
| 1788146146 | 56° F | 85% | 763.6 mmHg | 0 in | - | - | - |
| 1788145244 | 56° F | 85% | 763.5 mmHg | 0 in | - | - | - |
| 1788144345 | 57° F | 85% | 763.4 mmHg | 0 in | - | - | - |
| 1788143445 | 57° F | 85% | 763.4 mmHg | 0 in | - | - | - |
| 1788142549 | 57° F | 84% | 763.4 mmHg | 0 in | - | - | - |
| 1788141649 | 58° F | 83% | 763.5 mmHg | 0 in | - | - | - |
| 1788140745 | 58° F | 83% | 763.5 mmHg | 0 in | - | - | - |
| 1788139846 | 58° F | 82% | 763.4 mmHg | 0 in | - | - | - |
| 1788138045 | 59° F | 80% | 763.5 mmHg | 0 in | - | - | - |
| 1788137146 | 59° F | 79% | 763.4 mmHg | 0 in | - | - | - |
| 1788136244 | 60° F | 77% | 763.5 mmHg | 0 in | - | - | - |
| 1788135345 | 61° F | 74% | 763.4 mmHg | 0 in | - | - | - |
| 1788134446 | 62° F | 70% | 763.4 mmHg | 0 in | - | - | - |
| 1788133544 | 64° F | 59% | 763.3 mmHg | 0 in | - | - | - |
| 1788132645 | 65° F | 55% | 763.3 mmHg | 0 in | - | - | - |
* Rain latest hour (hover to see other rain measurements)
** Current wind speed in m/s (hover to see current wind gust speed)